Flag for Germany Weather past 2 weeks in Oelde, North Rhine-Westphalia, Germany

Now
55 °F

Broken clouds.


Feels Like: 54 °F
Forecast: 49 / 63 °F
Wind: 7 mph from West

Location: Paderborn / Lippstadt

Current Time: Aug 22, 2014 at 8:34:27 PM

Latest Report: Aug 22, 2014 at 7:50 PM


Visibility: 4 mi

Pressure: 29.86 "Hg

Humidity: 82%

Dew point: 50 °F

Location of OeldeLocation

Historic Weather in Oelde — Graph

°F

Oelde temperature yesterday

Maximum temperature yesterday: 61 °F (at 1:50 PM)
Minimum temperature yesterday: 46 °F (at 4:50 AM)
Average temperature yesterday: 54 °F

Past Weeks' High & Low Weather Summary

 TemperatureHumidityPressure
High77 °F (Aug 8, 2:50 PM)100% (Aug 8, 3:50 AM)30.07 "Hg (Aug 8, 3:50 AM)
Low46 °F (Aug 19, 11:50 PM)38% (Aug 11, 5:20 PM)29.62 "Hg (Aug 10, 8:20 PM)
Average60 °F70%29.87 "Hg
* Reported Aug 7 7:20 PM — Aug 22 7:20 PM, Oelde, Weather by CustomWeather, © 2014

Note: Actual official high and low records may vary slightly from our data, if they occured in-between our weather recording intervals... More about our weather records

Advertising

Oelde weather history for previous 24 hours

 ConditionsComfort  
Time TempWeatherWind HumidityBarometerVisibility
7:20 PM
Aug 22
59 °FRain showers. Broken clouds.13 mph63%29.86 "Hg4 mi
6:50 PM63 °FBroken clouds.12 mph52%29.86 "HgN/A
6:20 PM63 °FScattered clouds.13 mph56%29.86 "HgN/A
5:50 PM61 °FScattered showers. Scattered clouds.12 mph55%29.86 "HgN/A
5:20 PM63 °FScattered showers. Scattered clouds.14 mph56%29.86 "HgN/A
4:50 PM63 °FPassing clouds.13 mph52%29.86 "HgN/A
4:20 PM61 °FSunny.12 mph52%29.86 "Hg10 mi
3:50 PM63 °FSunny.14 mph49%29.86 "Hg10 mi
3:20 PM63 °FPassing clouds.14 mph49%29.89 "HgN/A
2:50 PM64 °FPassing clouds.16 mph49%29.89 "HgN/A
2:20 PM63 °FSunny.14 mph49%29.89 "Hg10 mi
1:50 PM63 °FSunny.16 mph49%29.89 "Hg10 mi
1:20 PM63 °FSunny.16 mph45%29.89 "Hg10 mi
12:50 PM63 °FSunny.15 mph49%29.89 "Hg10 mi
12:20 PM63 °FSunny.15 mph49%29.92 "Hg10 mi
11:20 AM61 °FPassing clouds.14 mph52%29.92 "HgN/A
10:50 AM61 °FSunny.14 mph52%29.92 "Hg10 mi
10:20 AM59 °FSunny.13 mph55%29.92 "Hg10 mi
9:50 AM59 °FSunny.15 mph55%29.92 "Hg10 mi
9:20 AM59 °FPassing clouds.13 mph55%29.92 "HgN/A
8:50 AM55 °FSunny.12 mph63%29.92 "Hg10 mi
8:20 AM55 °FScattered clouds.12 mph63%29.92 "HgN/A
7:50 AM54 °FScattered clouds.9 mph67%29.92 "HgN/A
7:20 AM54 °FPassing clouds.9 mph67%29.92 "HgN/A
6:50 AM52 °FPassing clouds.8 mph72%29.92 "HgN/A
6:20 AM52 °FClear.9 mph72%29.92 "Hg10 mi
5:50 AM50 °FClear.7 mph76%29.95 "Hg10 mi
5:20 AM52 °FClear.7 mph72%29.95 "Hg10 mi
4:20 AM52 °FClear.8 mph72%29.95 "Hg10 mi
3:50 AM55 °FClear.9 mph63%29.95 "Hg10 mi
11:50 PM
Aug 21
54 °FClear.12 mph67%29.98 "Hg10 mi
11:20 PM54 °FClear.13 mph67%29.98 "Hg10 mi
10:50 PM54 °FClear.10 mph67%29.98 "Hg10 mi
10:20 PM54 °FClear.9 mph67%29.98 "Hg10 mi
9:50 PM55 °FClear.7 mph63%29.98 "Hg10 mi
9:20 PM55 °FSunny.7 mph67%29.98 "Hg10 mi
8:50 PM55 °FSunny.7 mph67%29.98 "Hg10 mi
8:20 PM57 °FSunny.6 mph63%29.98 "Hg10 mi
Weather by CustomWeather, © 2014

See weather overviewHow to use our weather pages